Weather History for Ludington, MI

Change the Weather History Date:

Wednesday, October 9, 2013

  Actual Average Record
Temperature  
Mean Temperature 60 °F -  
Max Temperature 71 °F 59 °F 79 °F (1949)
Min Temperature 48 °F 41 °F 23 °F (1989)
Degree Days  
Heating Degree Days 6    
Growing Degree Days 10 (Base 50)    
Moisture  
Dew Point 50 °F    
Average Humidity 73    
Maximum Humidity 92    
Minimum Humidity 53    
Precipitation  
Precipitation 0.00 in - - ()
Sea Level Pressure  
Sea Level Pressure 30.22 in    
Wind  
Wind Speed 6 mph (South)    
Max Wind Speed 14 mph    
Max Gust Speed 18 mph    
Visibility 9 miles    
Events Fog    
Averages and records for this station are not official NWS values.
T = Trace of Precipitation, MM = Missing Value Source: NWS Daily Summary

Daily Weather History Graph

Daily Weather History Graph

Search for Another Location

Airport:

Trip Planner

Search our weather history database for the weather conditions in past years. The results will help you decide how hot, cold, wet, or windy it might be!

Date:

Astronomy

Oct. 09, 2013 Rise Set
Actual Time 7:53 AM EDT 7:11 PM EDT
Civil Twilight 7:24 AM EDT 7:40 PM EDT
Nautical Twilight 6:50 AM EDT 8:13 PM EDT
Astronomical Twilight 6:17 AM EDT 8:47 PM EDT
Moon 12:56 PM EDT (10/9) 10:37 PM EDT (10/9)
Length of Visible Light 12h 16m
Length of Day
11h 18m
Waxing Crescent, 25% of the Moon is Illuminated
Oct 9
Waxing Crescent
Oct 11
First Quarter
Oct 18
Full
Oct 26
Last Quarter
Nov 3
New

Hourly Weather History & Observations

Time (EDT) Temp. Dew Point Humidity Pressure Visibility Wind Dir Wind Speed Gust Speed Precip Events Conditions
12:15 AM 58.5 °F 49.8 °F 73% 30.17 in 10.0 mi SE 6.9 mph - N/A   Clear
12:35 AM 58.5 °F 49.6 °F 72% 30.17 in 10.0 mi SE 5.8 mph - N/A   Clear
12:55 AM 58.5 °F 49.6 °F 72% 30.17 in 10.0 mi SE 4.6 mph - N/A   Clear
1:15 AM 58.5 °F 49.1 °F 71% 30.18 in 10.0 mi SE 5.8 mph - N/A   Clear
1:35 AM 58.5 °F 49.5 °F 72% 30.18 in 10.0 mi SE 4.6 mph - N/A   Clear
1:55 AM 58.5 °F 49.1 °F 71% 30.18 in 10.0 mi SSE 4.6 mph - N/A   Clear
2:15 AM 58.5 °F 49.1 °F 71% 30.19 in 10.0 mi SE 5.8 mph - N/A   Clear
2:34 AM 58.5 °F 49.1 °F 71% 30.19 in 10.0 mi SSE 5.8 mph - N/A   Clear
2:55 AM 58.5 °F 49.1 °F 71% 30.19 in 10.0 mi SSE 4.6 mph - N/A   Clear
3:15 AM 58.5 °F 49.1 °F 71% 30.19 in 10.0 mi SSE 4.6 mph - N/A   Clear
3:34 AM 57.6 °F 48.4 °F 71% 30.19 in 10.0 mi SSE 4.6 mph - N/A   Clear
3:55 AM 55.9 °F 47.5 °F 73% 30.19 in 10.0 mi SSE 4.6 mph - N/A   Clear
4:15 AM 55.9 °F 47.8 °F 74% 30.20 in 10.0 mi South 3.5 mph - N/A   Clear
4:34 AM 55.9 °F 48.2 °F 75% 30.20 in 10.0 mi SSE 4.6 mph - N/A   Clear
4:55 AM 55.9 °F 48.9 °F 77% 30.21 in 10.0 mi South 3.5 mph - N/A   Clear
5:15 AM 54.5 °F 48.2 °F 79% 30.21 in 10.0 mi South 3.5 mph - N/A   Clear
5:34 AM 54.1 °F 47.7 °F 79% 30.22 in 10.0 mi South 4.6 mph - N/A   Clear
5:55 AM 53.6 °F 47.3 °F 79% 30.22 in 10.0 mi SSE 3.5 mph - N/A   Clear
6:15 AM 54.5 °F 48.0 °F 79% 30.23 in 10.0 mi SE 3.5 mph - N/A   Clear
6:35 AM 51.1 °F 46.0 °F 83% 30.23 in 10.0 mi SE 4.6 mph - N/A   Clear
6:55 AM 53.2 °F 47.1 °F 80% 30.23 in 10.0 mi SE 4.6 mph - N/A   Clear
7:15 AM 53.6 °F 47.3 °F 79% 30.24 in 10.0 mi SE 4.6 mph - N/A   Clear
7:35 AM 53.4 °F 47.1 °F 79% 30.24 in 10.0 mi SSE 4.6 mph - N/A   Clear
7:55 AM 53.6 °F 46.8 °F 78% 30.24 in 10.0 mi SSE 4.6 mph - N/A   Clear
8:15 AM 54.1 °F 47.3 °F 78% 30.25 in 10.0 mi SSE 5.8 mph - N/A   Clear
8:35 AM 55.9 °F 48.7 °F 77% 30.26 in 10.0 mi SSE 4.6 mph - N/A   Clear
8:55 AM 55.9 °F 48.4 °F 76% 30.26 in 10.0 mi SSE 4.6 mph - N/A   Clear
9:15 AM 55.9 °F 48.2 °F 75% 30.26 in 10.0 mi SSE 5.8 mph - N/A   Clear
9:35 AM 58.5 °F 50.0 °F 73% 30.27 in 10.0 mi SSE 5.8 mph - N/A   Clear
9:55 AM 59.2 °F 50.2 °F 72% 30.27 in 10.0 mi SSE 4.6 mph - N/A   Clear
10:14 AM 61.0 °F 51.1 °F 70% 30.27 in 10.0 mi SSE 5.8 mph - N/A   Clear
10:35 AM 62.4 °F 51.6 °F 68% 30.27 in 10.0 mi SSE 5.8 mph - N/A   Clear
10:55 AM 63.5 °F 52.0 °F 66% 30.27 in 10.0 mi SSE 6.9 mph - N/A   Clear
11:15 AM 65.1 °F 53.2 °F 65% 30.27 in 10.0 mi South 5.8 mph - N/A   Clear
11:35 AM 68.5 °F 55.4 °F 63% 30.27 in 10.0 mi South 12.7 mph - N/A   Clear
12:15 PM 68.5 °F 54.7 °F 61% 30.26 in 10.0 mi SSW 9.2 mph 17.3 mph N/A   Clear
12:35 PM 69.1 °F 54.7 °F 60% 30.26 in 10.0 mi SSW 12.7 mph - N/A   Clear
12:55 PM 70.7 °F 55.0 °F 58% 30.26 in 10.0 mi SSW 11.5 mph - N/A   Clear
1:15 PM 70.5 °F 54.0 °F 56% 30.26 in 10.0 mi SSW 11.5 mph - N/A   Clear
1:35 PM 71.1 °F 53.1 °F 53% 30.25 in 10.0 mi SW 11.5 mph - N/A   Clear
1:54 PM 71.1 °F 54.0 °F 55% 30.24 in 10.0 mi WSW 13.8 mph - N/A   Clear
2:15 PM 71.1 °F 53.8 °F 54% 30.23 in 10.0 mi SW 12.7 mph - N/A   Clear
2:35 PM 69.4 °F 53.4 °F 57% 30.23 in 10.0 mi SW 11.5 mph - N/A   Clear
2:54 PM 70.3 °F 54.7 °F 58% 30.22 in 10.0 mi WSW 10.4 mph - N/A   Clear
3:15 PM 68.5 °F 53.1 °F 58% 30.22 in 10.0 mi WSW 11.5 mph - N/A   Clear
3:35 PM 68.5 °F 55.4 °F 63% 30.22 in 10.0 mi WSW 13.8 mph - N/A   Clear
3:55 PM 66.2 °F 54.3 °F 65% 30.22 in 10.0 mi WSW 8.1 mph - N/A   Clear
4:15 PM 66.2 °F 54.7 °F 66% 30.22 in 10.0 mi SW 10.4 mph 18.4 mph N/A   Clear
4:35 PM 66.2 °F 54.7 °F 66% 30.22 in 10.0 mi SW 9.2 mph - N/A   Clear
4:55 PM 65.8 °F 53.2 °F 64% 30.21 in 10.0 mi SW 11.5 mph - N/A   Clear
5:15 PM 65.1 °F 52.2 °F 63% 30.21 in 10.0 mi SW 9.2 mph - N/A   Clear
5:35 PM 64.6 °F 51.6 °F 63% 30.20 in 10.0 mi WSW 10.4 mph - N/A   Clear
5:55 PM 63.7 °F 51.1 °F 64% 30.20 in 10.0 mi SW 8.1 mph - N/A   Clear
6:15 PM 63.5 °F 51.6 °F 65% 30.20 in 10.0 mi WSW 5.8 mph - N/A   Clear
6:35 PM 62.4 °F 50.9 °F 66% 30.20 in 10.0 mi WSW 6.9 mph - N/A   Clear
6:55 PM 61.2 °F 51.1 °F 69% 30.20 in 10.0 mi SW 3.5 mph - N/A   Clear
7:15 PM 58.5 °F 52.2 °F 80% 30.20 in 10.0 mi Calm Calm - N/A   Clear
7:35 PM 55.9 °F 52.0 °F 87% 30.20 in 10.0 mi Calm Calm - N/A   Clear
7:55 PM 55.8 °F 52.5 °F 89% 30.20 in 10.0 mi Calm Calm - N/A   Clear
8:15 PM 53.6 °F 50.5 °F 89% 30.20 in 10.0 mi East 3.5 mph - N/A   Clear
8:35 PM 53.4 °F 50.5 °F 90% 30.21 in 7.0 mi Calm Calm - N/A   Clear
8:55 PM 50.9 °F 48.2 °F 90% 30.21 in 5.0 mi Calm Calm - N/A   Clear
9:15 PM 50.9 °F 48.2 °F 90% 30.21 in 0.8 mi Calm Calm - N/A   Mist
9:35 PM 50.9 °F 48.4 °F 91% 30.21 in 0.5 mi Calm Calm - N/A Fog Fog
9:55 PM 50.9 °F 48.4 °F 91% 30.21 in 7.0 mi Calm Calm - N/A   Clear
10:15 PM 48.4 °F 45.9 °F 91% 30.21 in 0.8 mi Calm Calm - N/A   Mist
10:35 PM 48.4 °F 45.9 °F 91% 30.21 in 4.0 mi Calm Calm - N/A   Clear
10:55 PM 48.2 °F 45.7 °F 91% 30.21 in 7.0 mi Calm Calm - N/A   Clear
11:15 PM 49.6 °F 47.3 °F 92% 30.20 in 10.0 mi SE 4.6 mph - N/A   Clear
11:35 PM 48.2 °F 45.7 °F 91% 30.20 in 10.0 mi Calm Calm - N/A   Clear
11:55 PM 49.5 °F 46.9 °F 91% 30.19 in 10.0 mi ESE 3.5 mph - N/A   Clear